TimeCST,TemperatureF,Dew PointF,Humidity,Sea Level PressureIn,VisibilityMPH,Wind Direction,Wind SpeedMPH,Gust SpeedMPH,PrecipitationIn,Events,Conditions,WindDirDegrees,DateUTC
12:53 AM,35.1,32.0,89,30.12,10.0,NW,3.5,-,N/A,,Overcast,320,2013-02-13 06:53:00
1:53 AM,35.1,32.0,89,30.11,10.0,Calm,Calm,-,N/A,,Overcast,0,2013-02-13 07:53:00
2:53 AM,35.1,32.0,89,30.11,10.0,NW,4.6,-,N/A,,Overcast,320,2013-02-13 08:53:00
3:30 AM,35.6,32.0,87,30.08,10.0,Calm,Calm,-,N/A,,Overcast,0,2013-02-13 09:30:00
3:53 AM,35.1,32.0,89,30.10,10.0,Calm,Calm,-,N/A,,Mostly Cloudy,0,2013-02-13 09:53:00
4:02 AM,33.8,30.2,87,30.08,10.0,Calm,Calm,-,N/A,,Scattered Clouds,0,2013-02-13 10:02:00
4:32 AM,33.8,30.2,87,30.08,10.0,SSW,3.5,-,N/A,,Mostly Cloudy,210,2013-02-13 10:32:00
4:53 AM,33.1,30.0,89,30.11,9.0,Calm,Calm,-,N/A,,Scattered Clouds,0,2013-02-13 10:53:00
5:07 AM,32.0,30.2,93,30.08,8.0,Calm,Calm,-,N/A,,Partly Cloudy,0,2013-02-13 11:07:00
6:53 AM,28.9,28.0,96,30.10,5.0,Calm,Calm,-,N/A,,Clear,0,2013-02-13 12:53:00
7:53 AM,28.9,28.0,96,30.11,6.0,Calm,Calm,-,N/A,,Clear,0,2013-02-13 13:53:00
8:53 AM,32.0,30.0,92,30.13,9.0,Variable,3.5,-,N/A,,Clear,0,2013-02-13 14:53:00
9:53 AM,37.0,33.1,86,30.13,10.0,WSW,6.9,-,N/A,,Clear,250,2013-02-13 15:53:00
10:53 AM,41.0,34.0,76,30.13,10.0,WSW,8.1,-,N/A,,Clear,250,2013-02-13 16:53:00
11:53 AM,46.0,35.1,66,30.11,10.0,SW,5.8,-,N/A,,Clear,230,2013-02-13 17:53:00
12:53 PM,48.9,34.0,56,30.09,10.0,WSW,6.9,-,N/A,,Clear,250,2013-02-13 18:53:00
1:53 PM,53.1,33.1,47,30.05,10.0,West,6.9,-,N/A,,Clear,270,2013-02-13 19:53:00
2:53 PM,55.0,28.9,37,30.02,10.0,West,8.1,-,N/A,,Clear,260,2013-02-13 20:53:00
3:53 PM,55.9,25.0,30,30.01,10.0,WNW,6.9,-,N/A,,Clear,290,2013-02-13 21:53:00
4:53 PM,55.9,21.9,27,30.00,10.0,WSW,6.9,-,N/A,,Clear,250,2013-02-13 22:53:00
5:53 PM,53.1,30.9,43,30.00,10.0,SW,3.5,-,N/A,,Clear,230,2013-02-13 23:53:00
6:53 PM,46.0,30.9,56,30.02,10.0,Calm,Calm,-,N/A,,Clear,0,2013-02-14 00:53:00
7:53 PM,41.0,32.0,70,30.02,10.0,Calm,Calm,-,N/A,,Clear,0,2013-02-14 01:53:00
8:53 PM,37.0,32.0,82,30.03,10.0,Calm,Calm,-,N/A,,Clear,0,2013-02-14 02:53:00
9:53 PM,36.0,34.0,93,30.02,10.0,Calm,Calm,-,N/A,,Clear,0,2013-02-14 03:53:00
10:53 PM,33.1,30.9,92,30.04,10.0,Calm,Calm,-,N/A,,Clear,0,2013-02-14 04:53:00
11:53 PM,32.0,30.0,92,30.05,10.0,Calm,Calm,-,N/A,,Clear,0,2013-02-14 05:53:00